Wetterdaten: Mittwoch, 13.04.2016
Datum Zeit Auen-Temp. Temp gefhlt Luftfeuchte Luftdruck Regen Wind Richtung Richtung Sonnenschein Taupunkt Windben
13.04.2016 00:00 4,9 C 4,1 C 78 % 1009,6 hPa 0,0 mm 0,0 km/h (0 Bft) O-NO 67 0 min 1,4 C 0,0 km/h (0 Bft)
13.04.2016 00:05 5,0 C 4,3 C 78 % 1009,6 hPa 0,0 mm 0,0 km/h (0 Bft) O-SO 112 0 min 1,5 C 0,0 km/h (0 Bft)
13.04.2016 00:10 5,0 C 4,1 C 78 % 1009,4 hPa 0,0 mm 0,0 km/h (0 Bft) O-NO 67 0 min 1,5 C 0,0 km/h (0 Bft)
13.04.2016 00:15 4,8 C 4,0 C 79 % 1009,4 hPa 0,0 mm 0,0 km/h (0 Bft) N-NW 337 0 min 1,5 C 0,0 km/h (0 Bft)
13.04.2016 00:20 4,7 C 4,1 C 79 % 1009,4 hPa 0,0 mm 0,0 km/h (0 Bft) O-NO 67 0 min 1,4 C 0,0 km/h (0 Bft)
13.04.2016 00:25 4,7 C 4,2 C 79 % 1009,4 hPa 0,0 mm 0,0 km/h (0 Bft) O-NO 67 0 min 1,4 C 0,0 km/h (0 Bft)
13.04.2016 00:30 4,6 C 4,1 C 79 % 1009,5 hPa 0,0 mm 0,0 km/h (0 Bft) N-NO 22 0 min 1,3 C 0,0 km/h (0 Bft)
13.04.2016 00:35 4,7 C 4,1 C 79 % 1009,5 hPa 0,0 mm 0,0 km/h (0 Bft) N-NO 22 0 min 1,4 C 0,0 km/h (0 Bft)
13.04.2016 00:40 4,7 C 4,2 C 79 % 1009,5 hPa 0,0 mm 0,0 km/h (0 Bft) S 180 0 min 1,4 C 0,0 km/h (0 Bft)
13.04.2016 00:45 4,9 C 4,1 C 80 % 1009,5 hPa 0,0 mm 0,0 km/h (0 Bft) NO 45 0 min 1,7 C 0,0 km/h (0 Bft)
13.04.2016 00:50 4,9 C 4,0 C 80 % 1009,2 hPa 0,0 mm 0,0 km/h (0 Bft) N-NW 337 0 min 1,7 C 0,0 km/h (0 Bft)
13.04.2016 00:55 4,9 C 4,0 C 80 % 1009,2 hPa 0,0 mm 0,0 km/h (0 Bft) W 270 0 min 1,7 C 0,0 km/h (0 Bft)
13.04.2016 01:00 5,0 C 4,0 C 80 % 1009,2 hPa 0,0 mm 0,0 km/h (0 Bft) O 90 0 min 1,8 C 0,0 km/h (0 Bft)
13.04.2016 01:05 5,0 C 4,4 C 80 % 1009,2 hPa 0,0 mm 0,0 km/h (0 Bft) O-NO 67 0 min 1,8 C 0,0 km/h (0 Bft)
13.04.2016 01:10 4,9 C 4,0 C 80 % 1009,6 hPa 0,0 mm 0,0 km/h (0 Bft) N-NW 337 0 min 1,7 C 0,0 km/h (0 Bft)
13.04.2016 01:15 4,7 C 3,8 C 80 % 1009,6 hPa 0,0 mm 0,0 km/h (0 Bft) SW 225 0 min 1,6 C 0,0 km/h (0 Bft)
13.04.2016 01:20 4,9 C 4,1 C 81 % 1009,6 hPa 0,0 mm 0,9 km/h (0 Bft) S 180 0 min 1,9 C 4,8 km/h (1 Bft)
13.04.2016 01:25 5,0 C 4,4 C 81 % 1009,6 hPa 0,0 mm 1,8 km/h (1 Bft) SO 135 0 min 2,0 C 12,5 km/h (3 Bft)
13.04.2016 01:28 5,3 C 4,8 C 86 % 1009,6 hPa 0,0 mm 1,5 km/h (1 Bft) S-SO 157 0 min 3,2 C 0,0 km/h (0 Bft)
13.04.2016 01:30 5,3 C 4,8 C 86 % 1009,6 hPa 0,0 mm 1,5 km/h (1 Bft) S-SO 157 0 min 3,2 C 0,0 km/h (0 Bft)
13.04.2016 01:35 5,7 C 5,2 C 81 % 1009,6 hPa 0,0 mm 5,7 km/h (1 Bft) S-SW 202 0 min 2,7 C 21,8 km/h (4 Bft)
13.04.2016 01:40 6,3 C 5,6 C 85 % 1009,6 hPa 0,0 mm 10,7 km/h (2 Bft) SW 225 0 min 4,0 C 13,7 km/h (3 Bft)
13.04.2016 01:45 6,4 C 5,6 C 80 % 1009,6 hPa 0,0 mm 8,9 km/h (2 Bft) NW 315 0 min 3,2 C 23,2 km/h (4 Bft)
13.04.2016 01:50 5,8 C 5,4 C 79 % 1010,3 hPa 0,0 mm 4,2 km/h (1 Bft) O-NO 67 0 min 2,4 C 4,2 km/h (1 Bft)
13.04.2016 01:55 5,8 C 5,4 C 80 % 1010,3 hPa 0,0 mm 2,7 km/h (1 Bft) NW 315 0 min 2,6 C 0,0 km/h (0 Bft)
13.04.2016 02:00 5,7 C 5,3 C 79 % 1010,3 hPa 0,0 mm 2,1 km/h (1 Bft) S 180 0 min 2,3 C 3,9 km/h (1 Bft)
13.04.2016 02:05 5,8 C 5,4 C 80 % 1010,3 hPa 0,0 mm 0,6 km/h (0 Bft) SO 135 0 min 2,6 C 0,0 km/h (0 Bft)
13.04.2016 02:10 5,9 C 5,5 C 85 % 1010,5 hPa 0,0 mm 3,0 km/h (1 Bft) W 270 0 min 3,6 C 4,2 km/h (1 Bft)
13.04.2016 02:15 6,2 C 5,7 C 79 % 1010,5 hPa 0,0 mm 6,9 km/h (2 Bft) SW 225 0 min 2,8 C 9,8 km/h (2 Bft)
13.04.2016 02:20 6,6 C 6,0 C 79 % 1010,5 hPa 0,0 mm 7,5 km/h (2 Bft) W-SW 247 0 min 3,2 C 13,4 km/h (3 Bft)
13.04.2016 02:25 6,9 C 6,2 C 79 % 1010,5 hPa 0,0 mm 10,1 km/h (2 Bft) W-SW 247 0 min 3,5 C 14,9 km/h (3 Bft)
13.04.2016 02:30 6,9 C 6,1 C 79 % 1010,8 hPa 0,0 mm 10,4 km/h (2 Bft) W 270 0 min 3,5 C 20,9 km/h (4 Bft)
13.04.2016 02:35 6,9 C 6,2 C 79 % 1010,8 hPa 0,0 mm 9,8 km/h (2 Bft) W-NW 292 0 min 3,5 C 9,8 km/h (2 Bft)
13.04.2016 02:40 6,9 C 6,3 C 79 % 1010,8 hPa 0,0 mm 9,8 km/h (2 Bft) W-SW 247 0 min 3,5 C 8,3 km/h (2 Bft)
13.04.2016 02:45 7,0 C 6,6 C 78 % 1010,8 hPa 0,0 mm 8,9 km/h (2 Bft) W 270 0 min 3,4 C 11,6 km/h (2 Bft)
13.04.2016 02:50 7,1 C 6,7 C 78 % 1010,9 hPa 0,0 mm 8,6 km/h (2 Bft) W 270 0 min 3,5 C 4,5 km/h (1 Bft)
13.04.2016 02:55 7,2 C 7,0 C 79 % 1010,9 hPa 0,0 mm 6,9 km/h (2 Bft) W 270 0 min 3,8 C 4,8 km/h (1 Bft)
13.04.2016 03:00 7,2 C 7,0 C 79 % 1010,9 hPa 0,0 mm 6,9 km/h (2 Bft) W-SW 247 0 min 3,8 C 11,0 km/h (2 Bft)
13.04.2016 03:05 7,2 C 7,0 C 79 % 1010,9 hPa 0,0 mm 8,3 km/h (2 Bft) W 270 0 min 3,8 C 12,5 km/h (3 Bft)
13.04.2016 03:10 7,2 C 7,0 C 78 % 1010,9 hPa 0,0 mm 8,3 km/h (2 Bft) W-SW 247 0 min 3,6 C 6,9 km/h (2 Bft)
13.04.2016 03:15 7,2 C 7,1 C 78 % 1010,9 hPa 0,0 mm 5,7 km/h (1 Bft) W-SW 247 0 min 3,6 C 8,3 km/h (2 Bft)
13.04.2016 03:20 7,2 C 7,1 C 78 % 1010,9 hPa 0,0 mm 5,7 km/h (1 Bft) S 180 0 min 3,6 C 8,0 km/h (2 Bft)
13.04.2016 03:25 7,3 C 7,2 C 78 % 1010,9 hPa 0,0 mm 6,6 km/h (2 Bft) S 180 0 min 3,7 C 13,4 km/h (3 Bft)
13.04.2016 03:30 7,3 C 7,2 C 78 % 1010,9 hPa 0,0 mm 6,9 km/h (2 Bft) W-SW 247 0 min 3,7 C 6,9 km/h (2 Bft)
13.04.2016 03:35 7,4 C 7,1 C 78 % 1010,9 hPa 0,0 mm 7,5 km/h (2 Bft) S 180 0 min 3,8 C 12,2 km/h (2 Bft)
13.04.2016 03:40 7,4 C 7,2 C 78 % 1010,9 hPa 0,0 mm 7,2 km/h (2 Bft) SW 225 0 min 3,8 C 4,8 km/h (1 Bft)
13.04.2016 03:45 7,4 C 7,2 C 78 % 1010,9 hPa 0,0 mm 6,6 km/h (2 Bft) SW 225 0 min 3,8 C 5,7 km/h (1 Bft)
13.04.2016 03:50 7,4 C 7,2 C 78 % 1010,9 hPa 0,0 mm 6,9 km/h (2 Bft) S 180 0 min 3,8 C 10,4 km/h (2 Bft)
13.04.2016 03:55 7,4 C 7,3 C 78 % 1010,9 hPa 0,0 mm 6,0 km/h (2 Bft) S 180 0 min 3,8 C 0,0 km/h (0 Bft)
13.04.2016 04:00 7,4 C 7,2 C 78 % 1010,9 hPa 0,0 mm 3,6 km/h (1 Bft) W-SW 247 0 min 3,8 C 3,3 km/h (1 Bft)
13.04.2016 04:05 7,4 C 7,2 C 78 % 1010,9 hPa 0,0 mm 1,8 km/h (1 Bft) O-SO 112 0 min 3,8 C 0,0 km/h (0 Bft)
13.04.2016 04:10 7,4 C 7,2 C 78 % 1010,9 hPa 0,0 mm 1,2 km/h (1 Bft) NW 315 0 min 3,8 C 0,0 km/h (0 Bft)
13.04.2016 04:15 7,3 C 7,1 C 78 % 1010,9 hPa 0,0 mm 0,0 km/h (0 Bft) O-NO 67 0 min 3,7 C 0,0 km/h (0 Bft)
13.04.2016 04:20 7,2 C 7,0 C 78 % 1010,9 hPa 0,0 mm 0,0 km/h (0 Bft) NO 45 0 min 3,6 C 0,0 km/h (0 Bft)
13.04.2016 04:25 7,1 C 7,0 C 78 % 1010,9 hPa 0,0 mm 0,0 km/h (0 Bft) O-NO 67 0 min 3,5 C 0,0 km/h (0 Bft)
13.04.2016 04:30 7,1 C 7,0 C 78 % 1010,8 hPa 0,0 mm 0,0 km/h (0 Bft) O-SO 112 0 min 3,5 C 0,0 km/h (0 Bft)
13.04.2016 04:31 7,1 C 7,0 C 78 % 1010,8 hPa 0,0 mm 0,0 km/h (0 Bft) O-SO 112 0 min 3,5 C 0,0 km/h (0 Bft)
13.04.2016 04:35 7,0 C 6,9 C 80 % 1010,8 hPa 0,0 mm 0,0 km/h (0 Bft) O-NO 67 0 min 3,8 C 0,0 km/h (0 Bft)
13.04.2016 04:40 7,0 C 6,9 C 80 % 1010,8 hPa 0,0 mm 0,0 km/h (0 Bft) O-NO 67 0 min 3,8 C 0,0 km/h (0 Bft)
13.04.2016 04:45 7,0 C 6,9 C 80 % 1010,8 hPa 0,0 mm 0,0 km/h (0 Bft) O-NO 67 0 min 3,8 C 0,0 km/h (0 Bft)
13.04.2016 04:50 7,0 C 6,9 C 80 % 1010,6 hPa 0,0 mm 0,0 km/h (0 Bft) O 90 0 min 3,8 C 0,0 km/h (0 Bft)
13.04.2016 04:55 7,0 C 6,9 C 80 % 1010,6 hPa 0,0 mm 0,0 km/h (0 Bft) O 90 0 min 3,8 C 0,0 km/h (0 Bft)
13.04.2016 05:00 7,0 C 6,9 C 80 % 1010,6 hPa 0,0 mm 0,0 km/h (0 Bft) SO 135 0 min 3,8 C 0,0 km/h (0 Bft)
13.04.2016 05:05 7,0 C 6,9 C 80 % 1010,6 hPa 0,0 mm 0,0 km/h (0 Bft) S-SO 157 0 min 3,8 C 0,0 km/h (0 Bft)
13.04.2016 05:10 7,0 C 6,9 C 80 % 1010,2 hPa 0,0 mm 0,0 km/h (0 Bft) O-SO 112 0 min 3,8 C 0,0 km/h (0 Bft)
13.04.2016 05:15 7,0 C 6,8 C 79 % 1010,2 hPa 0,0 mm 0,0 km/h (0 Bft) S-SO 157 0 min 3,6 C 0,0 km/h (0 Bft)
13.04.2016 05:20 7,0 C 6,8 C 79 % 1010,2 hPa 0,0 mm 0,0 km/h (0 Bft) O-SO 112 0 min 3,6 C 0,0 km/h (0 Bft)
13.04.2016 05:25 6,9 C 6,7 C 79 % 1010,2 hPa 0,0 mm 0,0 km/h (0 Bft) S-SO 157 0 min 3,5 C 0,0 km/h (0 Bft)
13.04.2016 05:30 6,9 C 6,7 C 79 % 1010,1 hPa 0,0 mm 0,0 km/h (0 Bft) SO 135 0 min 3,5 C 0,0 km/h (0 Bft)
13.04.2016 05:35 6,9 C 6,7 C 79 % 1010,1 hPa 0,0 mm 0,0 km/h (0 Bft) SO 135 0 min 3,5 C 0,0 km/h (0 Bft)
13.04.2016 05:40 6,9 C 6,7 C 80 % 1010,1 hPa 0,0 mm 0,0 km/h (0 Bft) SO 135 0 min 3,7 C 0,0 km/h (0 Bft)
13.04.2016 05:45 6,8 C 6,7 C 82 % 1010,1 hPa 0,0 mm 0,0 km/h (0 Bft) NO 45 0 min 3,9 C 0,0 km/h (0 Bft)
13.04.2016 05:50 6,8 C 6,7 C 80 % 1009,9 hPa 0,0 mm 0,0 km/h (0 Bft) O-NO 67 0 min 3,6 C 0,0 km/h (0 Bft)
13.04.2016 05:55 6,7 C 6,6 C 82 % 1009,9 hPa 0,0 mm 0,0 km/h (0 Bft) O-NO 67 0 min 3,8 C 0,0 km/h (0 Bft)
13.04.2016 06:00 6,7 C 6,5 C 80 % 1009,9 hPa 0,0 mm 0,0 km/h (0 Bft) SO 135 0 min 3,5 C 0,0 km/h (0 Bft)
13.04.2016 06:05 6,7 C 6,5 C 80 % 1009,9 hPa 0,0 mm 0,0 km/h (0 Bft) O-NO 67 0 min 3,5 C 0,0 km/h (0 Bft)
13.04.2016 06:10 6,6 C 6,4 C 80 % 1009,8 hPa 0,0 mm 0,0 km/h (0 Bft) W-SW 247 0 min 3,4 C 0,0 km/h (0 Bft)
13.04.2016 06:15 6,6 C 6,5 C 82 % 1009,8 hPa 0,0 mm 0,0 km/h (0 Bft) O 90 0 min 3,8 C 0,0 km/h (0 Bft)
13.04.2016 06:20 6,6 C 6,5 C 82 % 1009,8 hPa 0,0 mm 0,0 km/h (0 Bft) O 90 0 min 3,8 C 0,0 km/h (0 Bft)
13.04.2016 06:25 6,6 C 6,3 C 80 % 1009,8 hPa 0,0 mm 0,0 km/h (0 Bft) N 360 0 min 3,4 C 0,0 km/h (0 Bft)
13.04.2016 06:30 6,5 C 6,2 C 80 % 1009,2 hPa 0,0 mm 0,0 km/h (0 Bft) NO 45 0 min 3,3 C 0,0 km/h (0 Bft)
13.04.2016 06:35 6,4 C 6,1 C 80 % 1009,2 hPa 0,0 mm 0,0 km/h (0 Bft) O-SO 112 0 min 3,2 C 0,0 km/h (0 Bft)
13.04.2016 06:40 6,3 C 6,0 C 80 % 1009,2 hPa 0,0 mm 0,0 km/h (0 Bft) N-NO 22 0 min 3,1 C 0,0 km/h (0 Bft)
13.04.2016 06:45 6,2 C 6,0 C 80 % 1009,2 hPa 0,0 mm 0,0 km/h (0 Bft) O-SO 112 0 min 3,0 C 0,0 km/h (0 Bft)
13.04.2016 06:50 6,2 C 6,1 C 82 % 1009,6 hPa 0,0 mm 0,0 km/h (0 Bft) SO 135 0 min 3,4 C 0,0 km/h (0 Bft)
13.04.2016 06:55 6,1 C 6,0 C 82 % 1009,6 hPa 0,0 mm 0,0 km/h (0 Bft) O-NO 67 0 min 3,3 C 0,0 km/h (0 Bft)
13.04.2016 07:00 6,1 C 6,1 C 83 % 1009,6 hPa 0,0 mm 0,0 km/h (0 Bft) O 90 0 min 3,4 C 0,0 km/h (0 Bft)
13.04.2016 07:05 6,2 C 6,1 C 83 % 1009,6 hPa 0,0 mm 0,0 km/h (0 Bft) N-NO 22 0 min 3,5 C 0,0 km/h (0 Bft)
13.04.2016 07:10 6,3 C 6,2 C 80 % 1009,2 hPa 0,0 mm 0,0 km/h (0 Bft) NO 45 0 min 3,1 C 0,0 km/h (0 Bft)
13.04.2016 07:15 6,2 C 6,0 C 80 % 1009,2 hPa 0,0 mm 0,0 km/h (0 Bft) N-NO 22 0 min 3,0 C 0,0 km/h (0 Bft)
13.04.2016 07:20 6,2 C 5,9 C 80 % 1009,2 hPa 0,0 mm 0,0 km/h (0 Bft) W 270 0 min 3,0 C 0,0 km/h (0 Bft)
13.04.2016 07:25 6,2 C 5,8 C 80 % 1009,2 hPa 0,0 mm 0,0 km/h (0 Bft) W-SW 247 0 min 3,0 C 0,0 km/h (0 Bft)
13.04.2016 07:30 6,2 C 6,0 C 80 % 1009,5 hPa 0,0 mm 0,0 km/h (0 Bft) W-SW 247 0 min 3,0 C 0,0 km/h (0 Bft)
13.04.2016 07:32 6,2 C 6,0 C 80 % 1009,5 hPa 0,0 mm 0,0 km/h (0 Bft) W-SW 247 0 min 3,0 C 0,0 km/h (0 Bft)
13.04.2016 07:35 6,5 C 6,4 C 83 % 1009,5 hPa 0,0 mm 0,0 km/h (0 Bft) SO 135 0 min 3,8 C 0,0 km/h (0 Bft)
13.04.2016 07:40 6,9 C 6,9 C 84 % 1009,5 hPa 0,0 mm 0,0 km/h (0 Bft) NO 45 0 min 4,4 C 0,0 km/h (0 Bft)
13.04.2016 07:45 7,4 C 8,0 C 83 % 1009,5 hPa 0,0 mm 0,0 km/h (0 Bft) O-NO 67 0 min 4,7 C 0,0 km/h (0 Bft)
13.04.2016 07:50 7,9 C 9,7 C 83 % 1009,3 hPa 0,0 mm 0,0 km/h (0 Bft) O-NO 67 0 min 5,2 C 0,0 km/h (0 Bft)
13.04.2016 07:55 8,8 C 12,3 C 83 % 1009,3 hPa 0,0 mm 0,0 km/h (0 Bft) NW 315 5 min 6,1 C 0,0 km/h (0 Bft)
13.04.2016 08:00 8,6 C 12,4 C 82 % 1009,3 hPa 0,0 mm 1,5 km/h (1 Bft) W 270 5 min 5,7 C 5,7 km/h (1 Bft)
13.04.2016 08:05 9,0 C 11,5 C 81 % 1009,3 hPa 0,0 mm 3,0 km/h (1 Bft) N-NW 337 5 min 5,9 C 4,8 km/h (1 Bft)
13.04.2016 08:10 9,1 C 12,1 C 80 % 1009,1 hPa 0,0 mm 2,1 km/h (1 Bft) O-NO 67 5 min 5,8 C 0,0 km/h (0 Bft)
13.04.2016 08:15 8,9 C 11,9 C 80 % 1009,1 hPa 0,0 mm 1,2 km/h (1 Bft) SW 225 5 min 5,6 C 6,6 km/h (2 Bft)
13.04.2016 08:20 10,5 C 12,7 C 80 % 1009,1 hPa 0,0 mm 1,2 km/h (1 Bft) SW 225 5 min 7,2 C 0,0 km/h (0 Bft)
13.04.2016 08:25 9,9 C 14,3 C 78 % 1009,1 hPa 0,0 mm 1,5 km/h (1 Bft) O-NO 67 5 min 6,2 C 0,0 km/h (0 Bft)
13.04.2016 08:30 10,3 C 14,7 C 78 % 1009,2 hPa 0,0 mm 0,6 km/h (0 Bft) O-NO 67 5 min 6,6 C 0,0 km/h (0 Bft)
13.04.2016 08:35 10,9 C 15,6 C 76 % 1009,2 hPa 0,0 mm 0,0 km/h (0 Bft) N-NW 337 5 min 6,8 C 0,0 km/h (0 Bft)
13.04.2016 08:40 11,0 C 16,0 C 76 % 1009,2 hPa 0,0 mm 0,3 km/h (0 Bft) O-SO 112 5 min 6,9 C 0,0 km/h (0 Bft)
13.04.2016 08:45 11,5 C 16,6 C 74 % 1009,2 hPa 0,0 mm 0,3 km/h (0 Bft) NO 45 5 min 7,0 C 0,0 km/h (0 Bft)
13.04.2016 08:50 11,9 C 17,2 C 73 % 1009,1 hPa 0,0 mm 0,6 km/h (0 Bft) SO 135 5 min 7,2 C 5,1 km/h (1 Bft)
13.04.2016 08:55 11,8 C 18,2 C 72 % 1009,1 hPa 0,0 mm 0,9 km/h (0 Bft) O-NO 67 5 min 6,9 C 3,6 km/h (1 Bft)
13.04.2016 09:00 11,5 C 18,0 C 70 % 1009,1 hPa 0,0 mm 2,4 km/h (1 Bft) O 90 5 min 6,2 C 6,6 km/h (2 Bft)
13.04.2016 09:05 12,4 C 18,2 C 70 % 1009,1 hPa 0,0 mm 2,7 km/h (1 Bft) O-NO 67 5 min 7,1 C 0,0 km/h (0 Bft)
13.04.2016 09:10 13,3 C 18,9 C 69 % 1009,4 hPa 0,0 mm 2,1 km/h (1 Bft) W-SW 247 5 min 7,7 C 10,7 km/h (2 Bft)
13.04.2016 09:15 13,5 C 19,0 C 68 % 1009,4 hPa 0,0 mm 2,7 km/h (1 Bft) NW 315 5 min 7,7 C 0,0 km/h (0 Bft)
13.04.2016 09:20 12,8 C 19,0 C 66 % 1009,4 hPa 0,0 mm 3,3 km/h (1 Bft) SO 135 5 min 6,6 C 0,0 km/h (0 Bft)
13.04.2016 09:25 13,2 C 18,8 C 67 % 1009,4 hPa 0,0 mm 2,1 km/h (1 Bft) W-NW 292 5 min 7,2 C 4,2 km/h (1 Bft)
13.04.2016 09:30 13,6 C 18,8 C 67 % 1009,7 hPa 0,0 mm 3,6 km/h (1 Bft) W 270 5 min 7,6 C 4,2 km/h (1 Bft)
13.04.2016 09:35 13,4 C 18,2 C 66 % 1009,7 hPa 0,0 mm 6,0 km/h (2 Bft) SO 135 5 min 7,2 C 3,0 km/h (1 Bft)
13.04.2016 09:40 14,0 C 18,6 C 66 % 1009,7 hPa 0,0 mm 4,8 km/h (1 Bft) W-NW 292 5 min 7,7 C 5,7 km/h (1 Bft)
13.04.2016 09:45 15,2 C 19,6 C 66 % 1009,7 hPa 0,0 mm 3,6 km/h (1 Bft) NW 315 5 min 8,9 C 6,6 km/h (2 Bft)
13.04.2016 09:50 14,7 C 19,3 C 65 % 1010,2 hPa 0,0 mm 5,7 km/h (1 Bft) O-NO 67 5 min 8,2 C 10,7 km/h (2 Bft)
13.04.2016 09:55 14,0 C 18,6 C 63 % 1010,2 hPa 0,0 mm 6,6 km/h (2 Bft) O-NO 67 5 min 7,1 C 6,6 km/h (2 Bft)
13.04.2016 10:00 14,2 C 18,8 C 63 % 1010,2 hPa 0,0 mm 6,3 km/h (2 Bft) O-NO 67 5 min 7,3 C 8,3 km/h (2 Bft)
13.04.2016 10:05 13,4 C 18,4 C 63 % 1010,2 hPa 0,0 mm 5,4 km/h (1 Bft) O-SO 112 5 min 6,5 C 4,2 km/h (1 Bft)
13.04.2016 10:10 13,6 C 17,4 C 63 % 1010,4 hPa 0,0 mm 7,2 km/h (2 Bft) O-NO 67 5 min 6,7 C 14,3 km/h (3 Bft)
13.04.2016 10:15 14,3 C 17,2 C 63 % 1010,4 hPa 0,0 mm 9,8 km/h (2 Bft) N-NO 22 5 min 7,4 C 9,2 km/h (2 Bft)
13.04.2016 10:20 14,6 C 17,8 C 63 % 1010,4 hPa 0,0 mm 9,5 km/h (2 Bft) NO 45 5 min 7,6 C 13,7 km/h (3 Bft)
13.04.2016 10:25 14,4 C 17,9 C 63 % 1010,4 hPa 0,0 mm 8,6 km/h (2 Bft) O-NO 67 5 min 7,4 C 12,5 km/h (3 Bft)
13.04.2016 10:30 14,6 C 18,1 C 62 % 1010,7 hPa 0,0 mm 9,2 km/h (2 Bft) N-NO 22 5 min 7,4 C 11,6 km/h (2 Bft)
13.04.2016 10:33 15,1 C 18,6 C 60 % 1010,7 hPa 0,0 mm 7,2 km/h (2 Bft) W 270 3 min 7,4 C 0,0 km/h (0 Bft)
13.04.2016 10:35 15,1 C 18,6 C 60 % 1010,7 hPa 0,0 mm 7,2 km/h (2 Bft) W 270 2 min 7,4 C 0,0 km/h (0 Bft)
13.04.2016 10:40 15,4 C 19,5 C 60 % 1010,7 hPa 0,0 mm 6,3 km/h (2 Bft) NO 45 5 min 7,7 C 13,7 km/h (3 Bft)
13.04.2016 10:45 15,6 C 19,7 C 59 % 1010,7 hPa 0,0 mm 4,2 km/h (1 Bft) N-NW 337 5 min 7,6 C 0,0 km/h (0 Bft)
13.04.2016 10:50 15,3 C 20,1 C 59 % 1011,1 hPa 0,0 mm 4,8 km/h (1 Bft) O-NO 67 5 min 7,3 C 0,0 km/h (0 Bft)
13.04.2016 10:55 15,2 C 20,2 C 59 % 1011,1 hPa 0,0 mm 3,6 km/h (1 Bft) O-SO 112 5 min 7,2 C 0,0 km/h (0 Bft)
13.04.2016 11:00 14,7 C 19,6 C 59 % 1011,1 hPa 0,0 mm 3,6 km/h (1 Bft) NO 45 5 min 6,8 C 13,1 km/h (3 Bft)
13.04.2016 11:05 14,1 C 17,8 C 59 % 1011,1 hPa 0,0 mm 3,3 km/h (1 Bft) SO 135 5 min 6,2 C 0,0 km/h (0 Bft)
13.04.2016 11:10 13,9 C 17,3 C 59 % 1010,6 hPa 0,0 mm 2,4 km/h (1 Bft) O-NO 67 5 min 6,0 C 0,0 km/h (0 Bft)
13.04.2016 11:15 14,8 C 17,8 C 58 % 1010,6 hPa 0,0 mm 2,7 km/h (1 Bft) NO 45 5 min 6,6 C 11,3 km/h (2 Bft)
13.04.2016 11:20 15,7 C 17,9 C 58 % 1010,6 hPa 0,0 mm 5,1 km/h (1 Bft) W-NW 292 5 min 7,5 C 8,9 km/h (2 Bft)
13.04.2016 11:25 15,7 C 19,2 C 57 % 1010,6 hPa 0,0 mm 5,7 km/h (1 Bft) S 180 5 min 7,2 C 0,0 km/h (0 Bft)
13.04.2016 11:30 16,2 C 19,4 C 57 % 1010,4 hPa 0,0 mm 6,9 km/h (2 Bft) O-NO 67 5 min 7,7 C 13,4 km/h (3 Bft)
13.04.2016 11:35 15,8 C 18,9 C 55 % 1010,4 hPa 0,0 mm 11,0 km/h (2 Bft) O-NO 67 5 min 6,8 C 7,5 km/h (2 Bft)
13.04.2016 11:40 15,9 C 18,8 C 55 % 1010,4 hPa 0,0 mm 12,5 km/h (3 Bft) NO 45 5 min 6,9 C 22,4 km/h (4 Bft)
13.04.2016 11:45 16,1 C 19,1 C 56 % 1010,4 hPa 0,0 mm 10,7 km/h (2 Bft) N-NO 22 5 min 7,3 C 13,4 km/h (3 Bft)
13.04.2016 11:50 16,4 C 19,0 C 56 % 1010,5 hPa 0,0 mm 9,2 km/h (2 Bft) SO 135 5 min 7,6 C 4,2 km/h (1 Bft)
13.04.2016 11:55 16,4 C 19,8 C 56 % 1010,5 hPa 0,0 mm 7,7 km/h (2 Bft) O-NO 67 5 min 7,6 C 14,9 km/h (3 Bft)
13.04.2016 12:00 15,7 C 19,5 C 56 % 1010,5 hPa 0,0 mm 8,6 km/h (2 Bft) NO 45 5 min 6,9 C 18,5 km/h (3 Bft)
13.04.2016 12:05 16,8 C 19,3 C 56 % 1010,5 hPa 0,0 mm 10,1 km/h (2 Bft) N-NO 22 5 min 8,0 C 26,8 km/h (4 Bft)
13.04.2016 12:10 17,0 C 19,3 C 56 % 1010,4 hPa 0,0 mm 11,9 km/h (2 Bft) N-NW 337 5 min 8,2 C 11,0 km/h (2 Bft)
13.04.2016 12:15 16,4 C 19,1 C 56 % 1010,4 hPa 0,0 mm 13,1 km/h (3 Bft) N-NO 22 5 min 7,6 C 14,3 km/h (3 Bft)
13.04.2016 12:20 16,7 C 18,8 C 56 % 1010,4 hPa 0,0 mm 13,7 km/h (3 Bft) NO 45 0 min 7,9 C 20,0 km/h (4 Bft)
13.04.2016 12:25 16,4 C 18,5 C 55 % 1010,4 hPa 0,0 mm 14,0 km/h (3 Bft) W-NW 292 0 min 7,3 C 9,2 km/h (2 Bft)
13.04.2016 12:30 16,6 C 18,6 C 56 % 1010,2 hPa 0,0 mm 13,7 km/h (3 Bft) NO 45 0 min 7,8 C 18,2 km/h (3 Bft)
13.04.2016 12:35 16,1 C 18,4 C 56 % 1010,2 hPa 0,0 mm 13,4 km/h (3 Bft) O-NO 67 5 min 7,3 C 28,6 km/h (4 Bft)
13.04.2016 12:40 16,7 C 18,4 C 56 % 1010,2 hPa 0,0 mm 14,9 km/h (3 Bft) O-NO 67 0 min 7,9 C 14,9 km/h (3 Bft)
13.04.2016 12:45 17,6 C 18,9 C 56 % 1010,2 hPa 0,0 mm 11,9 km/h (2 Bft) NW 315 0 min 8,7 C 5,4 km/h (1 Bft)
13.04.2016 12:50 17,0 C 19,3 C 55 % 1010,0 hPa 0,0 mm 10,4 km/h (2 Bft) O 90 5 min 7,9 C 11,9 km/h (2 Bft)
13.04.2016 12:55 16,9 C 18,8 C 55 % 1010,0 hPa 0,0 mm 11,9 km/h (2 Bft) O-NO 67 0 min 7,8 C 13,7 km/h (3 Bft)
13.04.2016 13:00 16,4 C 18,3 C 55 % 1010,0 hPa 0,0 mm 12,8 km/h (3 Bft) O-NO 67 0 min 7,3 C 15,5 km/h (3 Bft)
13.04.2016 13:05 17,2 C 17,8 C 55 % 1010,0 hPa 0,0 mm 11,3 km/h (2 Bft) O-NO 67 0 min 8,1 C 12,2 km/h (2 Bft)
13.04.2016 13:10 17,4 C 17,6 C 55 % 1009,8 hPa 0,0 mm 9,8 km/h (2 Bft) O-NO 67 0 min 8,3 C 4,8 km/h (1 Bft)
13.04.2016 13:15 17,3 C 17,8 C 56 % 1009,8 hPa 0,0 mm 8,9 km/h (2 Bft) O-NO 67 0 min 8,4 C 20,0 km/h (4 Bft)
13.04.2016 13:20 17,5 C 17,9 C 55 % 1009,8 hPa 0,0 mm 8,9 km/h (2 Bft) O-NO 67 0 min 8,4 C 6,9 km/h (2 Bft)
13.04.2016 13:25 18,4 C 19,1 C 54 % 1009,8 hPa 0,0 mm 10,4 km/h (2 Bft) O-NO 67 0 min 8,9 C 19,1 km/h (3 Bft)
13.04.2016 13:30 16,9 C 19,5 C 55 % 1009,6 hPa 0,0 mm 10,7 km/h (2 Bft) O-NO 67 5 min 7,8 C 17,0 km/h (3 Bft)
13.04.2016 13:33 18,0 C 19,5 C 56 % 1009,6 hPa 0,0 mm 12,8 km/h (3 Bft) NW 315 0 min 9,1 C 17,3 km/h (3 Bft)
13.04.2016 13:34 18,0 C 19,5 C 56 % 1009,6 hPa 0,0 mm 12,8 km/h (3 Bft) NW 315 0 min 9,1 C 17,3 km/h (3 Bft)
13.04.2016 13:35 18,0 C 19,5 C 56 % 1009,6 hPa 0,0 mm 12,8 km/h (3 Bft) NW 315 0 min 9,1 C 17,3 km/h (3 Bft)
13.04.2016 13:40 18,8 C 20,1 C 54 % 1009,6 hPa 0,0 mm 12,8 km/h (3 Bft) O-NO 67 0 min 9,3 C 17,6 km/h (3 Bft)
13.04.2016 13:45 17,0 C 20,0 C 53 % 1009,6 hPa 0,0 mm 12,8 km/h (3 Bft) O-NO 67 5 min 7,4 C 14,9 km/h (3 Bft)
13.04.2016 13:50 16,1 C 19,0 C 55 % 1009,1 hPa 0,0 mm 11,9 km/h (2 Bft) NW 315 5 min 7,1 C 8,0 km/h (2 Bft)
13.04.2016 13:55 16,1 C 18,3 C 55 % 1009,1 hPa 0,0 mm 10,7 km/h (2 Bft) N-NO 22 5 min 7,1 C 13,1 km/h (3 Bft)
13.04.2016 14:00 15,5 C 17,2 C 55 % 1009,1 hPa 0,0 mm 11,3 km/h (2 Bft) N-NW 337 0 min 6,5 C 13,1 km/h (3 Bft)
13.04.2016 14:05 15,3 C 16,2 C 56 % 1009,1 hPa 0,0 mm 11,3 km/h (2 Bft) N-NW 337 0 min 6,6 C 15,2 km/h (3 Bft)
13.04.2016 14:10 15,2 C 15,8 C 56 % 1008,6 hPa 0,0 mm 9,2 km/h (2 Bft) N-NW 337 0 min 6,5 C 4,2 km/h (1 Bft)
13.04.2016 14:15 16,2 C 16,3 C 56 % 1008,6 hPa 0,0 mm 9,2 km/h (2 Bft) NO 45 0 min 7,4 C 9,8 km/h (2 Bft)
13.04.2016 14:20 16,3 C 16,9 C 56 % 1008,6 hPa 0,0 mm 8,9 km/h (2 Bft) NW 315 0 min 7,5 C 12,5 km/h (3 Bft)
13.04.2016 14:25 16,3 C 17,1 C 56 % 1008,6 hPa 0,0 mm 7,7 km/h (2 Bft) O-NO 67 0 min 7,5 C 3,6 km/h (1 Bft)
13.04.2016 14:30 15,7 C 16,9 C 55 % 1007,9 hPa 0,0 mm 7,7 km/h (2 Bft) O 90 0 min 6,7 C 4,2 km/h (1 Bft)
13.04.2016 14:35 15,4 C 16,5 C 56 % 1007,9 hPa 0,0 mm 5,4 km/h (1 Bft) NW 315 0 min 6,7 C 8,3 km/h (2 Bft)
13.04.2016 14:40 14,8 C 15,8 C 56 % 1007,9 hPa 0,0 mm 5,1 km/h (1 Bft) NW 315 0 min 6,1 C 6,3 km/h (2 Bft)
13.04.2016 14:45 14,3 C 14,8 C 56 % 1007,9 hPa 0,0 mm 6,3 km/h (2 Bft) W-SW 247 0 min 5,6 C 8,0 km/h (2 Bft)
13.04.2016 14:50 14,0 C 14,3 C 57 % 1008,2 hPa 0,0 mm 6,3 km/h (2 Bft) W-SW 247 0 min 5,6 C 6,6 km/h (2 Bft)
13.04.2016 14:55 11,9 C 11,9 C 59 % 1008,2 hPa 0,0 mm 12,8 km/h (3 Bft) W 270 0 min 4,1 C 38,7 km/h (5 Bft)
13.04.2016 15:00 10,6 C 10,1 C 61 % 1008,2 hPa 2,1 mm 16,1 km/h (3 Bft) SW 225 0 min 3,4 C 13,1 km/h (3 Bft)
13.04.2016 15:05 9,6 C 8,5 C 65 % 1008,2 hPa 0,0 mm 14,3 km/h (3 Bft) SO 135 0 min 3,4 C 17,9 km/h (3 Bft)
13.04.2016 15:10 9,4 C 8,2 C 67 % 1008,6 hPa 0,7 mm 13,4 km/h (3 Bft) W 270 0 min 3,6 C 23,8 km/h (4 Bft)
13.04.2016 15:15 9,2 C 8,1 C 71 % 1008,6 hPa 0,0 mm 14,0 km/h (3 Bft) SW 225 0 min 4,2 C 39,0 km/h (6 Bft)
13.04.2016 15:20 8,9 C 8,0 C 73 % 1008,6 hPa 0,0 mm 14,0 km/h (3 Bft) W-SW 247 0 min 4,3 C 17,3 km/h (3 Bft)
13.04.2016 15:25 8,8 C 8,1 C 75 % 1008,6 hPa 0,7 mm 15,8 km/h (3 Bft) W 270 0 min 4,6 C 20,0 km/h (4 Bft)
13.04.2016 15:30 8,8 C 8,2 C 75 % 1008,5 hPa 0,0 mm 14,9 km/h (3 Bft) W 270 0 min 4,6 C 16,4 km/h (3 Bft)
13.04.2016 15:35 8,9 C 8,4 C 84 % 1008,5 hPa 0,7 mm 15,8 km/h (3 Bft) NW 315 0 min 6,3 C 22,1 km/h (4 Bft)
13.04.2016 15:40 9,3 C 8,8 C 85 % 1008,5 hPa 0,7 mm 16,4 km/h (3 Bft) W-NW 292 0 min 6,9 C 25,0 km/h (4 Bft)
13.04.2016 15:45 9,5 C 9,1 C 85 % 1008,5 hPa 0,7 mm 15,8 km/h (3 Bft) SW 225 0 min 7,1 C 13,7 km/h (3 Bft)
13.04.2016 15:50 9,7 C 9,4 C 85 % 1008,6 hPa 0,0 mm 14,6 km/h (3 Bft) NW 315 0 min 7,3 C 17,9 km/h (3 Bft)
13.04.2016 15:55 9,4 C 9,0 C 79 % 1008,6 hPa 0,7 mm 13,7 km/h (3 Bft) W-SW 247 0 min 5,9 C 25,0 km/h (4 Bft)
13.04.2016 16:00 9,1 C 8,7 C 79 % 1008,6 hPa 0,0 mm 16,1 km/h (3 Bft) W 270 0 min 5,7 C 17,9 km/h (3 Bft)
13.04.2016 16:05 8,8 C 8,3 C 79 % 1008,6 hPa 0,0 mm 16,7 km/h (3 Bft) W 270 0 min 5,4 C 40,5 km/h (6 Bft)
13.04.2016 16:10 8,6 C 8,2 C 84 % 1009,1 hPa 0,7 mm 15,5 km/h (3 Bft) W-SW 247 0 min 6,1 C 27,1 km/h (4 Bft)
13.04.2016 16:15 8,5 C 7,9 C 79 % 1009,1 hPa 0,0 mm 17,0 km/h (3 Bft) W-SW 247 0 min 5,1 C 21,2 km/h (4 Bft)
13.04.2016 16:20 8,4 C 7,7 C 79 % 1009,1 hPa 0,0 mm 15,8 km/h (3 Bft) S-SW 202 0 min 5,0 C 9,5 km/h (2 Bft)
13.04.2016 16:25 8,3 C 7,7 C 79 % 1009,1 hPa 0,0 mm 12,5 km/h (3 Bft) W-SW 247 0 min 4,9 C 20,3 km/h (4 Bft)
13.04.2016 16:30 8,3 C 7,7 C 79 % 1009,1 hPa 0,0 mm 12,8 km/h (3 Bft) W-SW 247 0 min 4,9 C 20,6 km/h (4 Bft)
13.04.2016 16:33 8,1 C 7,5 C 80 % 1009,1 hPa 0,0 mm 18,2 km/h (3 Bft) W-NW 292 0 min 4,9 C 36,4 km/h (5 Bft)
13.04.2016 16:35 8,1 C 7,2 C 80 % 1009,1 hPa 0,0 mm 18,2 km/h (3 Bft) W-NW 292 0 min 4,9 C 36,4 km/h (5 Bft)
13.04.2016 16:40 7,8 C 7,1 C 80 % 1009,1 hPa 0,0 mm 20,9 km/h (4 Bft) W-SW 247 0 min 4,6 C 41,4 km/h (6 Bft)
13.04.2016 16:45 7,5 C 6,7 C 79 % 1009,1 hPa 0,0 mm 19,4 km/h (3 Bft) NW 315 0 min 4,1 C 11,6 km/h (2 Bft)
13.04.2016 16:50 7,4 C 6,6 C 80 % 1009,4 hPa 0,0 mm 15,8 km/h (3 Bft) O-NO 67 0 min 4,2 C 19,4 km/h (3 Bft)
13.04.2016 16:55 7,2 C 6,4 C 80 % 1009,4 hPa 0,0 mm 13,1 km/h (3 Bft) S-SW 202 0 min 4,0 C 12,2 km/h (2 Bft)
13.04.2016 17:00 7,2 C 6,5 C 85 % 1009,4 hPa 0,0 mm 13,1 km/h (3 Bft) W 270 0 min 4,9 C 13,7 km/h (3 Bft)
13.04.2016 17:05 7,3 C 6,7 C 85 % 1009,4 hPa 0,0 mm 13,7 km/h (3 Bft) W 270 0 min 4,9 C 23,8 km/h (4 Bft)
13.04.2016 17:10 7,3 C 6,9 C 85 % 1009,3 hPa 0,0 mm 14,3 km/h (3 Bft) W-SW 247 0 min 4,9 C 9,5 km/h (2 Bft)
13.04.2016 17:15 7,1 C 6,6 C 84 % 1009,3 hPa 0,0 mm 14,3 km/h (3 Bft) W 270 0 min 4,6 C 23,8 km/h (4 Bft)
13.04.2016 17:20 7,2 C 6,6 C 84 % 1009,3 hPa 0,0 mm 13,7 km/h (3 Bft) W-SW 247 0 min 4,7 C 12,8 km/h (3 Bft)
13.04.2016 17:25 7,1 C 6,6 C 84 % 1009,3 hPa 0,0 mm 14,6 km/h (3 Bft) SW 225 0 min 4,6 C 28,6 km/h (4 Bft)
13.04.2016 17:30 7,1 C 6,6 C 83 % 1009,1 hPa 0,0 mm 14,3 km/h (3 Bft) W-SW 247 0 min 4,4 C 12,2 km/h (2 Bft)
13.04.2016 17:35 7,1 C 6,6 C 83 % 1009,1 hPa 0,0 mm 11,6 km/h (2 Bft) SW 225 0 min 4,4 C 10,1 km/h (2 Bft)
13.04.2016 17:40 7,1 C 6,6 C 83 % 1009,1 hPa 0,0 mm 11,0 km/h (2 Bft) SW 225 0 min 4,4 C 18,5 km/h (3 Bft)
13.04.2016 17:45 7,2 C 6,6 C 82 % 1009,1 hPa 0,0 mm 13,4 km/h (3 Bft) W-NW 292 0 min 4,3 C 18,5 km/h (3 Bft)
13.04.2016 17:50 7,3 C 6,7 C 82 % 1009,1 hPa 2,7 mm 13,1 km/h (3 Bft) S-SW 202 0 min 4,4 C 11,3 km/h (2 Bft)
13.04.2016 17:55 7,3 C 7,1 C 79 % 1009,1 hPa 0,0 mm 5,4 km/h (1 Bft) SW 225 0 min 3,9 C 8,6 km/h (2 Bft)
13.04.2016 18:00 7,3 C 7,1 C 79 % 1009,1 hPa 0,0 mm 2,7 km/h (1 Bft) NO 45 0 min 3,9 C 0,0 km/h (0 Bft)
13.04.2016 18:05 7,3 C 7,1 C 79 % 1009,1 hPa 0,0 mm 1,8 km/h (1 Bft) SO 135 0 min 3,9 C 3,3 km/h (1 Bft)
13.04.2016 18:10 7,3 C 7,1 C 79 % 1008,6 hPa 0,0 mm 0,3 km/h (0 Bft) SO 135 0 min 3,9 C 0,0 km/h (0 Bft)
13.04.2016 18:15 7,3 C 7,1 C 79 % 1008,6 hPa 0,0 mm 0,3 km/h (0 Bft) N-NO 22 0 min 3,9 C 0,0 km/h (0 Bft)
13.04.2016 18:20 7,3 C 7,2 C 79 % 1008,6 hPa 0,0 mm 0,0 km/h (0 Bft) O-NO 67 0 min 3,9 C 0,0 km/h (0 Bft)
13.04.2016 18:25 7,3 C 7,2 C 79 % 1008,6 hPa 0,0 mm 0,0 km/h (0 Bft) O-SO 112 0 min 3,9 C 0,0 km/h (0 Bft)
13.04.2016 18:30 7,3 C 7,3 C 86 % 1008,4 hPa 0,0 mm 0,0 km/h (0 Bft) O-SO 112 0 min 5,1 C 0,0 km/h (0 Bft)
13.04.2016 18:35 7,4 C 7,4 C 86 % 1008,4 hPa 0,0 mm 0,0 km/h (0 Bft) O-SO 112 0 min 5,2 C 0,0 km/h (0 Bft)
13.04.2016 18:40 7,6 C 7,7 C 86 % 1008,4 hPa 0,0 mm 0,0 km/h (0 Bft) N-NW 337 0 min 5,4 C 0,0 km/h (0 Bft)
13.04.2016 18:45 7,8 C 7,8 C 86 % 1008,4 hPa 0,0 mm 0,0 km/h (0 Bft) SW 225 0 min 5,6 C 0,0 km/h (0 Bft)
13.04.2016 18:50 7,7 C 7,9 C 85 % 1008,7 hPa 0,0 mm 0,0 km/h (0 Bft) S-SO 157 0 min 5,3 C 0,0 km/h (0 Bft)
13.04.2016 18:55 7,8 C 7,8 C 85 % 1008,7 hPa 0,0 mm 0,0 km/h (0 Bft) SO 135 0 min 5,4 C 0,0 km/h (0 Bft)
13.04.2016 19:00 7,7 C 7,8 C 85 % 1008,7 hPa 0,0 mm 0,0 km/h (0 Bft) O-SO 112 0 min 5,3 C 0,0 km/h (0 Bft)
13.04.2016 19:05 7,7 C 7,8 C 85 % 1008,7 hPa 0,0 mm 0,0 km/h (0 Bft) SW 225 0 min 5,3 C 0,0 km/h (0 Bft)
13.04.2016 19:10 7,7 C 7,7 C 85 % 1009,0 hPa 0,0 mm 0,0 km/h (0 Bft) S 180 0 min 5,3 C 0,0 km/h (0 Bft)
13.04.2016 19:15 7,6 C 7,6 C 85 % 1009,0 hPa 0,0 mm 0,0 km/h (0 Bft) O-SO 112 0 min 5,2 C 0,0 km/h (0 Bft)
13.04.2016 19:20 7,5 C 7,4 C 85 % 1009,0 hPa 0,0 mm 0,0 km/h (0 Bft) S 180 0 min 5,1 C 0,0 km/h (0 Bft)
13.04.2016 19:25 7,4 C 7,3 C 85 % 1009,0 hPa 0,0 mm 0,9 km/h (0 Bft) S 180 0 min 5,0 C 4,8 km/h (1 Bft)
13.04.2016 19:30 7,4 C 7,2 C 85 % 1008,9 hPa 0,0 mm 2,1 km/h (1 Bft) S-SO 157 0 min 5,0 C 0,0 km/h (0 Bft)
13.04.2016 19:33 7,2 C 7,1 C 85 % 1008,9 hPa 0,0 mm 1,8 km/h (1 Bft) SO 135 0 min 4,9 C 0,0 km/h (0 Bft)
13.04.2016 19:36 7,2 C 7,1 C 85 % 1008,9 hPa 0,0 mm 1,8 km/h (1 Bft) SO 135 0 min 4,9 C 0,0 km/h (0 Bft)
13.04.2016 19:40 7,1 C 7,0 C 85 % 1008,9 hPa 0,0 mm 0,6 km/h (0 Bft) SO 135 0 min 4,8 C 0,0 km/h (0 Bft)
13.04.2016 19:45 7,0 C 6,9 C 86 % 1008,9 hPa 0,0 mm 0,9 km/h (0 Bft) SW 225 0 min 4,8 C 8,6 km/h (2 Bft)
13.04.2016 19:50 7,0 C 6,8 C 86 % 1009,1 hPa 0,0 mm 0,9 km/h (0 Bft) O 90 0 min 4,8 C 0,0 km/h (0 Bft)
13.04.2016 19:55 6,9 C 6,7 C 87 % 1009,1 hPa 0,0 mm 0,9 km/h (0 Bft) W-SW 247 0 min 4,9 C 0,0 km/h (0 Bft)
13.04.2016 20:00 6,9 C 6,7 C 87 % 1009,1 hPa 0,0 mm 0,9 km/h (0 Bft) SO 135 0 min 4,9 C 3,6 km/h (1 Bft)
13.04.2016 20:05 6,9 C 6,7 C 87 % 1009,1 hPa 0,0 mm 0,9 km/h (0 Bft) SO 135 0 min 4,9 C 0,0 km/h (0 Bft)
13.04.2016 20:10 6,8 C 6,6 C 87 % 1009,2 hPa 0,0 mm 0,0 km/h (0 Bft) O-SO 112 0 min 4,8 C 0,0 km/h (0 Bft)
13.04.2016 20:15 6,8 C 6,6 C 87 % 1009,2 hPa 0,0 mm 0,0 km/h (0 Bft) SO 135 0 min 4,8 C 0,0 km/h (0 Bft)
13.04.2016 20:20 6,7 C 6,5 C 88 % 1009,2 hPa 0,0 mm 0,0 km/h (0 Bft) W-SW 247 0 min 4,9 C 4,2 km/h (1 Bft)
13.04.2016 20:25 6,7 C 6,5 C 88 % 1009,2 hPa 0,0 mm 0,6 km/h (0 Bft) O-NO 67 0 min 4,9 C 0,0 km/h (0 Bft)
13.04.2016 20:30 6,6 C 6,5 C 88 % 1009,3 hPa 0,0 mm 0,6 km/h (0 Bft) NW 315 0 min 4,8 C 3,6 km/h (1 Bft)
13.04.2016 20:35 6,6 C 6,4 C 88 % 1009,3 hPa 0,0 mm 0,6 km/h (0 Bft) S 180 0 min 4,8 C 3,3 km/h (1 Bft)
13.04.2016 20:40 6,6 C 6,5 C 88 % 1009,3 hPa 0,0 mm 0,6 km/h (0 Bft) O-SO 112 0 min 4,8 C 0,0 km/h (0 Bft)
13.04.2016 20:45 6,6 C 6,5 C 88 % 1009,3 hPa 0,0 mm 0,0 km/h (0 Bft) O-SO 112 0 min 4,8 C 0,0 km/h (0 Bft)
13.04.2016 20:50 6,6 C 6,5 C 88 % 1009,3 hPa 0,0 mm 0,0 km/h (0 Bft) SO 135 0 min 4,8 C 0,0 km/h (0 Bft)
13.04.2016 20:55 6,5 C 6,4 C 88 % 1009,3 hPa 0,0 mm 0,0 km/h (0 Bft) W 270 0 min 4,7 C 0,0 km/h (0 Bft)
13.04.2016 21:00 6,5 C 6,4 C 88 % 1009,3 hPa 0,0 mm 0,0 km/h (0 Bft) SO 135 0 min 4,7 C 0,0 km/h (0 Bft)
13.04.2016 21:05 6,5 C 6,3 C 88 % 1009,3 hPa 0,0 mm 0,3 km/h (0 Bft) O-SO 112 0 min 4,7 C 0,0 km/h (0 Bft)
13.04.2016 21:10 6,5 C 6,3 C 88 % 1009,6 hPa 0,0 mm 0,0 km/h (0 Bft) SO 135 0 min 4,7 C 0,0 km/h (0 Bft)
13.04.2016 21:15 6,4 C 6,3 C 88 % 1009,6 hPa 0,0 mm 0,0 km/h (0 Bft) O 90 0 min 4,6 C 0,0 km/h (0 Bft)
13.04.2016 21:20 6,4 C 6,3 C 88 % 1009,6 hPa 0,0 mm 0,0 km/h (0 Bft) N-NO 22 0 min 4,6 C 0,0 km/h (0 Bft)
13.04.2016 21:25 6,4 C 6,3 C 88 % 1009,6 hPa 0,0 mm 0,0 km/h (0 Bft) O-NO 67 0 min 4,6 C 0,0 km/h (0 Bft)
13.04.2016 21:30 6,4 C 6,3 C 88 % 1009,7 hPa 0,0 mm 0,0 km/h (0 Bft) O 90 0 min 4,6 C 0,0 km/h (0 Bft)
13.04.2016 21:33 6,4 C 6,3 C 88 % 1009,7 hPa 0,0 mm 0,0 km/h (0 Bft) O-NO 67 0 min 4,6 C 0,0 km/h (0 Bft)
13.04.2016 21:36 6,4 C 6,3 C 88 % 1009,7 hPa 0,0 mm 0,0 km/h (0 Bft) O-NO 67 0 min 4,6 C 0,0 km/h (0 Bft)
13.04.2016 21:40 6,3 C 6,2 C 88 % 1009,7 hPa 0,0 mm 0,0 km/h (0 Bft) SW 225 0 min 4,5 C 0,0 km/h (0 Bft)
13.04.2016 21:45 6,3 C 6,2 C 88 % 1009,7 hPa 0,0 mm 0,0 km/h (0 Bft) W-NW 292 0 min 4,5 C 0,0 km/h (0 Bft)
13.04.2016 21:50 6,3 C 6,2 C 88 % 1009,8 hPa 0,0 mm 1,2 km/h (1 Bft) S-SO 157 0 min 4,5 C 3,3 km/h (1 Bft)
13.04.2016 21:55 6,3 C 6,2 C 88 % 1009,8 hPa 0,0 mm 1,2 km/h (1 Bft) SO 135 0 min 4,5 C 0,0 km/h (0 Bft)
13.04.2016 22:00 6,3 C 6,2 C 88 % 1009,8 hPa 0,0 mm 0,3 km/h (0 Bft) W-SW 247 0 min 4,5 C 3,3 km/h (1 Bft)
13.04.2016 22:05 6,2 C 6,1 C 88 % 1009,8 hPa 0,0 mm 0,6 km/h (0 Bft) SO 135 0 min 4,4 C 0,0 km/h (0 Bft)
13.04.2016 22:10 6,2 C 6,1 C 89 % 1009,8 hPa 0,0 mm 0,9 km/h (0 Bft) SO 135 0 min 4,5 C 0,0 km/h (0 Bft)
13.04.2016 22:15 6,1 C 6,0 C 89 % 1009,8 hPa 0,0 mm 0,6 km/h (0 Bft) S-SO 157 0 min 4,4 C 3,0 km/h (1 Bft)
13.04.2016 22:20 6,1 C 6,0 C 89 % 1009,8 hPa 0,0 mm 0,6 km/h (0 Bft) S 180 0 min 4,4 C 3,6 km/h (1 Bft)
13.04.2016 22:25 6,1 C 6,0 C 89 % 1009,8 hPa 0,0 mm 0,9 km/h (0 Bft) O-SO 112 0 min 4,4 C 0,0 km/h (0 Bft)
13.04.2016 22:30 6,0 C 5,9 C 89 % 1009,8 hPa 0,0 mm 0,9 km/h (0 Bft) SO 135 0 min 4,3 C 3,9 km/h (1 Bft)
13.04.2016 22:35 5,9 C 5,8 C 89 % 1009,8 hPa 0,0 mm 1,5 km/h (1 Bft) S 180 0 min 4,2 C 3,6 km/h (1 Bft)
13.04.2016 22:40 5,9 C 5,7 C 90 % 1009,8 hPa 0,0 mm 1,8 km/h (1 Bft) O-NO 67 0 min 4,4 C 0,0 km/h (0 Bft)
13.04.2016 22:45 5,6 C 5,5 C 89 % 1009,8 hPa 0,0 mm 1,2 km/h (1 Bft) S-SO 157 0 min 3,9 C 0,0 km/h (0 Bft)
13.04.2016 22:50 5,5 C 5,4 C 89 % 1009,6 hPa 0,0 mm 0,3 km/h (0 Bft) SW 225 0 min 3,8 C 3,0 km/h (1 Bft)
13.04.2016 22:55 5,5 C 5,3 C 89 % 1009,6 hPa 0,0 mm 2,4 km/h (1 Bft) S-SO 157 0 min 3,8 C 3,9 km/h (1 Bft)
13.04.2016 23:00 5,4 C 5,3 C 89 % 1009,6 hPa 0,0 mm 3,3 km/h (1 Bft) S-SO 157 0 min 3,7 C 0,0 km/h (0 Bft)
13.04.2016 23:05 5,4 C 5,3 C 90 % 1009,6 hPa 0,0 mm 3,3 km/h (1 Bft) S-SO 157 0 min 3,9 C 6,3 km/h (2 Bft)
13.04.2016 23:10 5,4 C 5,3 C 90 % 1009,6 hPa 0,0 mm 3,3 km/h (1 Bft) SO 135 0 min 3,9 C 5,4 km/h (1 Bft)
13.04.2016 23:15 5,4 C 5,3 C 90 % 1009,6 hPa 0,0 mm 4,2 km/h (1 Bft) SO 135 0 min 3,9 C 4,8 km/h (1 Bft)
13.04.2016 23:20 5,4 C 5,3 C 90 % 1009,6 hPa 0,0 mm 3,3 km/h (1 Bft) SO 135 0 min 3,9 C 3,3 km/h (1 Bft)
13.04.2016 23:25 5,6 C 5,4 C 91 % 1009,6 hPa 0,0 mm 0,9 km/h (0 Bft) S-SO 157 0 min 4,2 C 0,0 km/h (0 Bft)
13.04.2016 23:30 5,7 C 5,6 C 91 % 1009,4 hPa 0,0 mm 0,3 km/h (0 Bft) NW 315 0 min 4,3 C 0,0 km/h (0 Bft)
13.04.2016 23:35 5,7 C 5,6 C 91 % 1009,4 hPa 0,0 mm 0,3 km/h (0 Bft) SO 135 0 min 4,3 C 0,0 km/h (0 Bft)
13.04.2016 23:40 5,7 C 5,6 C 91 % 1009,4 hPa 0,0 mm 0,3 km/h (0 Bft) SO 135 0 min 4,3 C 0,0 km/h (0 Bft)
13.04.2016 23:45 5,8 C 5,7 C 91 % 1009,4 hPa 0,0 mm 0,0 km/h (0 Bft) O-SO 112 0 min 4,4 C 0,0 km/h (0 Bft)
13.04.2016 23:50 5,8 C 5,7 C 91 % 1009,4 hPa 0,0 mm 1,2 km/h (1 Bft) S-SW 202 0 min 4,4 C 3,6 km/h (1 Bft)
13.04.2016 23:55 5,9 C 5,8 C 91 % 1009,4 hPa 0,0 mm 2,7 km/h (1 Bft) W 270 0 min 4,5 C 0,0 km/h (0 Bft)
_ Min-Zeit 00:30 01:15 13:45 14:45 - 23:45 - - - 00:30 23:55
Minimum _ 4,6 C 3,8 C 53 % 1007,9 hPa - 0,0 km/h (0 Bft) - - - 1,3 C 0,0 km/h (0 Bft)
_ Max-Zeit 13:40 10:55 23:55 11:05 17:50 16:40 - - 13:55 13:40 16:40
Maximum _ 18,8 C 20,2 C 91 % 1011,1 hPa 2,7 mm 20,9 km/h
W-SW (4 Bft)
- - 5 min 9,3 C 41,4 km/h
W-SW (6 Bft)
Durchschnitt _ 9,1 C 9,8 C 76 % 1009,6 hPa #9,6 mm 4,8 km/h (1 Bft) O-NO - #4:55 h 4,9 C 6,5 km/h (2 Bft)